CW2995 Weather Reports


Display with metric or nautical units.
time (UTC)temp
F
wind
direction
speed
MPH
gust
MPH
rain 1hr
in
rain 24hr
in
rain mn
in
humidity
%
barometer
mb
20190123142601 40 232 0.0 0.0 0.00 0.00 0.00 84 1026.7
20190123142119 40 232 0.0 0.0 0.00 0.00 0.00 84 1026.7
20190123141614 40 232 0.0 0.0 0.00 0.00 0.00 84 1026.6
20190123141110 40 232 0.0 0.0 0.00 0.00 0.00 84 1026.6
20190123140608 40 232 0.0 0.0 0.00 0.00 0.00 84 1026.6
20190123140108 40 232 0.0 0.0 0.00 0.00 0.00 83 1026.5
20190123135607 40 232 0.0 0.0 0.00 0.00 0.00 83 1026.5
20190123135105 41 232 0.0 0.0 0.00 0.00 0.00 83 1026.5
20190123134619 41 232 0.0 0.0 0.00 0.00 0.00 83 1026.5
20190123134116 41 232 0.0 0.0 0.00 0.00 0.00 83 1026.5
20190123133613 41 232 0.0 0.0 0.00 0.00 0.00 83 1026.5
20190123133114 41 232 0.0 0.0 0.00 0.00 0.00 83 1026.2
20190123132612 41 232 0.0 0.0 0.00 0.00 0.00 82 1026.2
20190123132109 41 232 0.0 0.0 0.00 0.00 0.00 82 1026.2
20190123131610 41 232 0.0 0.0 0.00 0.00 0.00 82 1026.2
20190123131109 41 232 0.0 0.0 0.00 0.00 0.00 84 1026.2
20190123130604 41 232 0.0 0.0 0.00 0.00 0.00 84 1026.2
20190123130102 41 232 0.0 0.0 0.00 0.00 0.00 85 1026.2
20190123125619 41 232 0.0 0.0 0.00 0.00 0.00 85 1026.2
20190123125118 41 232 0.0 0.0 0.00 0.00 0.00 85 1026.2
20190123124616 41 232 0.0 0.0 0.00 0.00 0.00 85 1026.2
20190123124113 41 232 0.0 0.0 0.00 0.00 0.00 85 1026.2
20190123123611 41 232 0.0 0.0 0.00 0.00 0.00 85 1026.2
20190123123108 41 232 0.0 0.0 0.00 0.00 0.00 85 1026.0
20190123122603 41 232 0.0 0.0 0.00 0.00 0.00 85 1026.0
20190123122105 41 232 0.0 0.0 0.00 0.00 0.00 85 1026.0
20190123121601 41 232 0.0 0.0 0.00 0.00 0.00 84 1025.9
20190123121120 41 232 0.0 0.0 0.00 0.00 0.00 84 1025.9
20190123120614 41 232 0.0 0.0 0.00 0.00 0.00 84 1025.9
20190123120113 41 232 0.0 0.0 0.00 0.00 0.00 83 1025.8
20190123115608 41 232 0.0 0.0 0.00 0.00 0.00 83 1025.8
20190123115107 41 232 0.0 0.0 0.00 0.00 0.00 84 1025.8
20190123114602 41 232 0.0 0.0 0.00 0.00 0.00 84 1025.8
20190123114100 41 232 0.0 0.0 0.00 0.00 0.00 83 1025.8
20190123113616 42 232 0.0 0.0 0.00 0.00 0.00 83 1025.8
20190123113114 42 232 0.0 0.0 0.00 0.00 0.00 83 1025.7
20190123112616 42 232 0.0 0.0 0.00 0.00 0.00 83 1025.7
20190123112114 42 232 0.0 0.0 0.00 0.00 0.00 83 1025.7
20190123111611 42 232 0.0 0.0 0.00 0.00 0.00 83 1026.1
20190123111109 42 232 0.0 0.0 0.00 0.00 0.00 83 1026.1
20190123110607 42 232 0.0 0.0 0.00 0.00 0.00 83 1026.1
20190123110105 42 232 0.0 0.0 0.00 0.00 0.00 82 1026.2
20190123105558 42 232 0.0 0.0 0.00 0.00 0.00 82 1026.2
20190123105120 42 232 0.0 0.0 0.00 0.00 0.00 81 1026.2
20190123104615 42 232 0.0 0.0 0.00 0.00 0.00 81 1026.2
20190123104112 42 232 0.0 0.0 0.00 0.00 0.00 81 1026.2
20190123103608 43 232 0.0 0.0 0.00 0.00 0.00 80 1026.2
20190123103105 43 232 0.0 2.0 0.00 0.00 0.00 81 1026.4
20190123102603 43 232 0.0 3.0 0.00 0.00 0.00 81 1026.4
20190123102120 43 232 2.0 3.0 0.00 0.00 0.00 80 1026.4
20190123101612 43 232 0.0 1.0 0.00 0.00 0.00 80 1026.4
20190123101111 43 232 0.0 0.0 0.00 0.00 0.00 79 1026.4
20190123100606 44 232 0.0 0.0 0.00 0.00 0.00 79 1026.4
20190123100102 44 232 0.0 0.0 0.00 0.00 0.00 79 1026.4
20190123095557 44 232 0.0 0.0 0.00 0.00 0.00 78 1026.4
20190123095100 44 232 0.0 0.0 0.00 0.00 0.00 78 1026.4
20190123094116 44 232 0.0 0.0 0.00 0.00 0.00 78 1026.6
20190123093610 45 232 0.0 0.0 0.00 0.00 0.00 78 1026.6
20190123093107 44 232 0.0 0.0 0.00 0.00 0.00 78 1026.7
20190123092605 44 232 0.0 0.0 0.00 0.00 0.00 78 1026.7
20190123092100 45 232 0.0 3.0 0.00 0.00 0.00 78 1026.7
20190123091558 44 232 1.0 3.0 0.00 0.00 0.00 78 1026.5
20190123091120 45 232 0.0 0.0 0.00 0.00 0.00 77 1026.5
20190123090614 45 232 0.0 0.0 0.00 0.00 0.00 77 1026.5
20190123090112 45 232 0.0 2.0 0.00 0.00 0.00 77 1026.7
20190123085609 45 232 0.0 2.0 0.00 0.00 0.00 77 1026.7
20190123085108 45 232 0.0 0.0 0.00 0.00 0.00 77 1026.7
20190123084601 45 232 0.0 3.0 0.00 0.00 0.00 76 1026.7
20190123084118 45 232 2.0 3.0 0.00 0.00 0.00 75 1026.7
20190123083613 45 232 0.0 0.0 0.00 0.00 0.00 74 1026.7
20190123083058 46 232 0.0 0.0 0.00 0.00 0.00 73 1026.7
20190123082615 46 232 0.0 0.0 0.00 0.00 0.00 73 1026.7
20190123082115 46 232 0.0 0.0 0.00 0.00 0.00 73 1026.7
20190123081612 46 232 0.0 4.0 0.00 0.00 0.00 74 1026.6
20190123081109 45 232 0.0 4.0 0.00 0.00 0.00 76 1026.6
20190123080602 45 281 0.0 0.0 0.00 0.00 0.00 78 1026.6
20190123080117 45 281 0.0 0.0 0.00 0.00 0.00 77 1026.3
20190123075612 45 281 0.0 0.0 0.00 0.00 0.00 77 1026.3
20190123075108 46 281 0.0 0.0 0.00 0.00 0.00 77 1026.3
20190123074605 46 281 0.0 0.0 0.00 0.00 0.00 76 1026.3
20190123074103 46 281 0.0 0.0 0.00 0.00 0.00 79 1026.3
20190123073616 46 281 0.0 0.0 0.00 0.00 0.00 79 1026.3
20190123073109 46 281 0.0 0.0 0.00 0.00 0.00 79 1026.4
20190123072608 46 281 0.0 0.0 0.00 0.00 0.00 78 1026.4
20190123072105 46 281 0.0 0.0 0.00 0.00 0.00 77 1026.4
20190123071606 46 281 0.0 0.0 0.00 0.00 0.00 77 1026.3
20190123071103 47 281 0.0 0.0 0.00 0.00 0.00 77 1026.3
20190123070557 47 281 0.0 0.0 0.00 0.00 0.00 76 1026.3
20190123070117 47 281 0.0 0.0 0.00 0.00 0.00 76 1026.3
20190123065609 47 281 0.0 0.0 0.00 0.00 0.00 76 1026.3
20190123065106 47 281 0.0 0.0 0.00 0.00 0.00 76 1026.3
20190123064602 47 281 0.0 0.0 0.00 0.00 0.00 76 1026.4
20190123064100 47 281 0.0 0.0 0.00 0.00 0.00 75 1026.4
20190123063617 47 281 0.0 0.0 0.00 0.00 0.00 75 1026.4
20190123063115 48 281 0.0 0.0 0.00 0.00 0.00 74 1026.2
20190123062611 48 281 0.0 0.0 0.00 0.00 0.00 74 1026.2
20190123062105 48 281 0.0 0.0 0.00 0.00 0.00 74 1026.2
20190123061603 48 281 0.0 0.0 0.00 0.00 0.00 75 1026.2
20190123061059 48 281 0.0 0.0 0.00 0.00 0.00 75 1026.2
20190123060618 49 281 0.0 0.0 0.00 0.00 0.00 74 1026.2
20190123060057 49 281 0.0 0.0 0.00 0.00 0.00 74 1026.2
20190123055615 49 281 0.0 0.0 0.00 0.00 0.00 73 1026.2
20190123055112 49 281 0.0 0.0 0.00 0.00 0.00 73 1026.2
20190123054604 49 281 0.0 0.0 0.00 0.00 0.00 73 1026.2
20190123054103 49 281 0.0 0.0 0.00 0.00 0.00 73 1026.2
20190123053616 50 281 0.0 0.0 0.00 0.00 0.00 73 1026.2
20190123053111 50 281 0.0 0.0 0.00 0.00 0.00 73 1026.1
20190123052606 50 281 0.0 0.0 0.00 0.00 0.00 72 1026.1
20190123052103 50 281 0.0 0.0 0.00 0.00 0.00 72 1026.1
20190123051113 50 281 0.0 0.0 0.00 0.00 0.00 72 1026.0
20190123050611 50 281 0.0 0.0 0.00 0.00 0.00 74 1026.0
20190123050105 51 281 0.0 0.0 0.00 0.00 0.00 73 1025.7
20190123045601 51 281 0.0 0.0 0.00 0.00 0.00 73 1025.7
20190123045058 51 281 0.0 0.0 0.00 0.00 0.00 73 1025.7
20190123044616 51 281 0.0 0.0 0.00 0.00 0.00 73 1025.7
20190123044113 51 281 0.0 0.0 0.00 0.00 0.00 74 1025.7
20190123043614 51 281 0.0 0.0 0.00 0.00 0.00 74 1025.7
20190123043112 51 281 0.0 0.0 0.00 0.00 0.00 73 1025.4
20190123042608 51 281 0.0 0.0 0.00 0.00 0.00 73 1025.4
20190123042105 51 281 0.0 0.0 0.00 0.00 0.00 72 1025.4
20190123041557 52 281 0.0 0.0 0.00 0.00 0.00 72 1025.2
20190123040612 52 281 0.0 0.0 0.00 0.00 0.00 71 1025.2
20190123040108 52 281 0.0 0.0 0.00 0.00 0.00 70 1025.2
20190123035602 53 281 0.0 0.0 0.00 0.00 0.00 70 1025.2
20190123035101 53 281 0.0 0.0 0.00 0.00 0.00 70 1025.2
20190123034613 53 281 0.0 0.0 0.00 0.00 0.00 70 1025.1
20190123034113 54 281 0.0 0.0 0.00 0.00 0.00 69 1025.1
20190123033610 54 281 0.0 0.0 0.00 0.00 0.00 69 1025.1
20190123033108 54 281 0.0 0.0 0.00 0.00 0.00 68 1024.9
20190123032600 54 281 0.0 0.0 0.00 0.00 0.00 65 1024.9
20190123032101 54 281 0.0 0.0 0.00 0.00 0.00 62 1024.9
20190123031558 55 281 0.0 0.0 0.00 0.00 0.00 60 1024.7
20190123031118 55 281 0.0 0.0 0.00 0.00 0.00 59 1024.7
20190123030613 56 281 0.0 0.0 0.00 0.00 0.00 57 1024.7
20190123030110 56 281 0.0 0.0 0.00 0.00 0.00 56 1024.7
20190123025604 57 281 0.0 0.0 0.00 0.00 0.00 55 1024.7
20190123025103 57 281 0.0 0.0 0.00 0.00 0.00 54 1024.7
20190123024600 57 281 0.0 0.0 0.00 0.00 0.00 54 1024.6
20190123024116 57 281 0.0 1.0 0.00 0.00 0.00 55 1024.6
20190123023612 57 281 0.0 3.0 0.00 0.00 0.00 55 1024.6
20190123023112 57 281 0.0 3.0 0.00 0.00 0.00 57 1024.7
20190123022605 57 281 1.0 3.0 0.00 0.00 0.00 58 1024.7
20190123022102 57 286 0.0 3.0 0.00 0.00 0.00 61 1024.7
20190123021616 58 286 0.0 5.0 0.00 0.00 0.00 61 1024.6
20190123021113 58 286 0.0 5.0 0.00 0.00 0.00 61 1024.6
20190123020604 58 288 3.0 5.0 0.00 0.00 0.00 61 1024.6
20190123020107 58 288 1.0 3.0 0.00 0.00 0.00 61 1024.4
20190123015602 58 288 0.0 2.0 0.00 0.00 0.00 60 1024.4
20190123015058 59 288 0.0 3.0 0.00 0.00 0.00 58 1024.4
20190123014619 59 288 0.0 3.0 0.00 0.00 0.00 55 1024.4
20190123014116 59 288 0.0 2.0 0.00 0.00 0.00 53 1024.4
20190123013611 59 288 1.0 4.0 0.00 0.00 0.00 51 1024.4
20190123013108 60 288 1.0 5.0 0.00 0.00 0.00 50 1024.2
20190123012558 60 279 2.0 5.0 0.00 0.00 0.00 49 1024.2
20190123012119 60 280 1.0 3.0 0.00 0.00 0.00 45 1024.2
20190123011615 61 280 0.0 4.0 0.00 0.00 0.00 42 1024.1
20190123011113 61 275 0.0 4.0 0.00 0.00 0.00 39 1024.1
20190123010606 62 262 1.0 4.0 0.00 0.00 0.00 38 1024.1
20190123010101 63 260 0.0 5.0 0.00 0.00 0.00 38 1024.1
20190123005613 63 260 1.0 6.0 0.00 0.00 0.00 37 1024.1
20190123005112 64 271 2.0 5.0 0.00 0.00 0.00 35 1024.1
20190123004610 64 271 3.0 5.0 0.00 0.00 0.00 34 1024.1
20190123004112 64 265 2.0 5.0 0.00 0.00 0.00 33 1024.1
20190123003608 64 275 2.0 5.0 0.00 0.00 0.00 32 1024.1
20190123003121 64 275 3.0 5.0 0.00 0.00 0.00 32 1024.0
20190123002620 64 258 3.0 5.0 0.00 0.00 0.00 32 1024.0
20190123002117 64 251 2.0 6.0 0.00 0.00 0.00 33 1024.0
20190123002057 64 247 3.0 8.0 0.00 0.00 0.00 33 1023.7
20190123000600 65 259 4.0 7.0 0.00 0.00 0.00 29 1023.7
20190123000118 65 246 1.0 7.0 0.00 0.00 0.00 31 1023.6
20190122235611 65 238 4.0 7.0 0.00 0.00 0.00 31 1023.6
20190122235109 65 264 3.0 7.0 0.00 0.00 0.00 32 1023.6
20190122234602 65 264 3.0 7.0 0.00 0.00 0.00 30 1023.6
20190122234119 66 255 4.0 7.0 0.00 0.00 0.00 29 1023.6
20190122233614 67 263 2.0 7.0 0.00 0.00 0.00 29 1023.6
20190122233113 67 279 1.0 5.0 0.00 0.00 0.00 27 1023.4
20190122232609 67 279 1.0 5.0 0.00 0.00 0.00 27 1023.4
20190122232109 67 280 2.0 5.0 0.00 0.00 0.00 26 1023.4
20190122231607 67 269 0.0 5.0 0.00 0.00 0.00 28 1023.5
20190122231103 66 269 3.0 5.0 0.00 0.00 0.00 28 1023.5
20190122230601 66 274 1.0 6.0 0.00 0.00 0.00 27 1023.5
20190122230118 66 252 0.0 6.0 0.00 0.00 0.00 29 1023.4
20190122225613 65 252 4.0 6.0 0.00 0.00 0.00 31 1023.4
20190122225111 65 244 5.0 6.0 0.00 0.00 0.00 29 1023.4
20190122224604 65 241 3.0 7.0 0.00 0.00 0.00 31 1023.4
20190122224101 64 236 4.0 7.0 0.00 0.00 0.00 29 1023.4
20190122223613 64 239 3.0 8.0 0.00 0.00 0.00 33 1023.4
20190122223108 64 219 5.0 9.0 0.00 0.00 0.00 36 1023.5
20190122222600 63 231 3.0 9.0 0.00 0.00 0.00 39 1023.5
20190122222118 63 240 5.0 8.0 0.00 0.00 0.00 42 1023.5
20190122221616 63 244 4.0 7.0 0.00 0.00 0.00 42 1023.7
20190122221110 63 248 4.0 8.0 0.00 0.00 0.00 45 1023.7
20190122220604 63 232 5.0 8.0 0.00 0.00 0.00 46 1023.7
20190122220104 62 251 4.0 8.0 0.00 0.00 0.00 45 1023.9
20190122215600 63 272 5.0 12.0 0.00 0.00 0.00 45 1023.9
20190122215058 63 234 6.0 12.0 0.00 0.00 0.00 43 1023.9
20190122214618 64 247 6.0 10.0 0.00 0.00 0.00 38 1023.8
20190122214113 64 238 4.0 9.0 0.00 0.00 0.00 36 1023.8
20190122213606 64 238 5.0 8.0 0.00 0.00 0.00 28 1023.8
20190122213101 64 233 5.0 7.0 0.00 0.00 0.00 27 1023.8
20190122212617 64 230 5.0 8.0 0.00 0.00 0.00 28 1023.8
20190122212110 64 235 5.0 8.0 0.00 0.00 0.00 29 1023.8
20190122211606 64 234 5.0 8.0 0.00 0.00 0.00 28 1023.8
20190122211103 64 248 4.0 10.0 0.00 0.00 0.00 30 1023.8
20190122210606 64 257 6.0 10.0 0.00 0.00 0.00 30 1023.8
20190122210102 64 249 4.0 11.0 0.00 0.00 0.00 34 1024.0
20190122205558 64 232 7.0 11.0 0.00 0.00 0.00 32 1024.0
20190122205116 64 249 5.0 10.0 0.00 0.00 0.00 35 1024.0
20190122204613 65 241 6.0 12.0 0.00 0.00 0.00 31 1024.0
20190122204110 64 235 4.0 12.0 0.00 0.00 0.00 33 1024.0
20190122203607 64 299 3.0 11.0 0.00 0.00 0.00 33 1024.0
20190122203106 64 257 7.0 11.0 0.00 0.00 0.00 32 1023.9
20190122202600 64 253 5.0 12.0 0.00 0.00 0.00 33 1023.9
20190122202057 64 259 7.0 12.0 0.00 0.00 0.00 31 1023.9
20190122201615 65 247 8.0 12.0 0.00 0.00 0.00 26 1024.0
20190122201112 65 258 6.0 10.0 0.00 0.00 0.00 26 1024.0
20190122200604 65 235 6.0 10.0 0.00 0.00 0.00 26 1024.0
20190122200101 64 257 7.0 11.0 0.00 0.00 0.00 27 1024.0
20190122195620 65 238 6.0 11.0 0.00 0.00 0.00 28 1024.0
20190122195117 65 240 7.0 13.0 0.00 0.00 0.00 28 1024.0
20190122194611 65 241 6.0 13.0 0.00 0.00 0.00 29 1024.0
20190122194106 65 250 6.0 12.0 0.00 0.00 0.00 29 1024.0
20190122193606 65 245 6.0 11.0 0.00 0.00 0.00 27 1024.0
20190122193103 65 243 6.0 11.0 0.00 0.00 0.00 28 1024.0
20190122192616 65 234 5.0 9.0 0.00 0.00 0.00 26 1024.0
20190122192101 65 229 7.0 9.0 0.00 0.00 0.00 26 1024.0
20190122191611 65 205 4.0 7.0 0.00 0.00 0.00 27 1024.1
20190122191111 65 201 2.0 7.0 0.00 0.00 0.00 26 1024.1
20190122190604 65 218 2.0 7.0 0.00 0.00 0.00 27 1024.1
20190122190103 65 198 2.0 7.0 0.00 0.00 0.00 27 1024.2
20190122185616 65 198 3.0 7.0 0.00 0.00 0.00 27 1024.2
20190122185111 64 188 0.0 5.0 0.00 0.00 0.00 28 1024.2
20190122184607 64 188 1.0 5.0 0.00 0.00 0.00 28 1024.3
20190122184107 64 182 1.0 5.0 0.00 0.00 0.00 27 1024.3
20190122183601 65 77 1.0 3.0 0.00 0.00 0.00 26 1024.3
20190122183118 65 76 0.0 2.0 0.00 0.00 0.00 26 1024.2
20190122182616 65 74 0.0 2.0 0.00 0.00 0.00 28 1024.2
20190122182112 64 74 0.0 2.0 0.00 0.00 0.00 29 1024.2
20190122181605 63 75 0.0 0.0 0.00 0.00 0.00 31 1024.3
20190122181103 62 76 0.0 4.0 0.00 0.00 0.00 32 1024.3
20190122180619 62 76 0.0 4.0 0.00 0.00 0.00 31 1024.3
20190122180059 62 74 0.0 5.0 0.00 0.00 0.00 32 1024.4
20190122175615 62 74 2.0 5.0 0.00 0.00 0.00 33 1024.4
20190122175111 61 66 0.0 2.0 0.00 0.00 0.00 33 1024.4
20190122174604 61 66 0.0 5.0 0.00 0.00 0.00 34 1024.4
20190122174117 60 66 2.0 5.0 0.00 0.00 0.00 33 1024.4
20190122173614 60 58 1.0 5.0 0.00 0.00 0.00 35 1024.4
20190122173112 60 58 3.0 7.0 0.00 0.00 0.00 34 1024.1
20190122172609 60 55 3.0 9.0 0.00 0.00 0.00 34 1024.1
20190122172105 60 52 5.0 9.0 0.00 0.00 0.00 33 1024.1
20190122171601 59 44 3.0 12.0 0.00 0.00 0.00 34 1024.1
20190122171102 59 57 7.0 12.0 0.00 0.00 0.00 33 1024.1
20190122170615 59 46 6.0 9.0 0.00 0.00 0.00 34 1024.1
20190122170111 59 30 4.0 9.0 0.00 0.00 0.00 34 1023.8
20190122165602 58 32 5.0 11.0 0.00 0.00 0.00 35 1023.8
20190122165119 58 18 8.0 11.0 0.00 0.00 0.00 35 1023.8
20190122164614 58 27 4.0 9.0 0.00 0.00 0.00 37 1023.6
20190122164111 57 17 6.0 9.0 0.00 0.00 0.00 37 1023.6
20190122163610 57 55 5.0 10.0 0.00 0.00 0.00 38 1023.6
20190122163109 57 19 5.0 10.0 0.00 0.00 0.00 39 1023.6
20190122162602 56 38 5.0 8.0 0.00 0.00 0.00 40 1023.6
20190122162103 56 25 3.0 7.0 0.00 0.00 0.00 42 1023.6
20190122161618 55 24 2.0 7.0 0.00 0.00 0.00 43 1023.5
20190122161117 55 13 3.0 7.0 0.00 0.00 0.00 43 1023.5
20190122160613 54 13 3.0 7.0 0.00 0.00 0.00 44 1023.5
20190122160114 54 18 2.0 7.0 0.00 0.00 0.00 45 1023.4
20190122155610 53 23 3.0 8.0 0.00 0.00 0.00 47 1023.4
20190122155107 52 25 4.0 8.0 0.00 0.00 0.00 49 1023.4
20190122154600 51 28 3.0 7.0 0.00 0.00 0.00 52 1023.1
20190122154117 50 28 3.0 7.0 0.00 0.00 0.00 57 1023.1
20190122153614 49 78 0.0 0.0 0.00 0.00 0.00 61 1023.1
20190122153106 48 78 0.0 0.0 0.00 0.00 0.00 61 1022.8
20190122152603 48 78 0.0 2.0 0.00 0.00 0.00 60 1022.8
20190122152102 48 78 0.0 4.0 0.00 0.00 0.00 60 1022.8
20190122151615 48 78 2.0 4.0 0.00 0.00 0.00 60 1022.7
20190122151114 47 82 2.0 5.0 0.00 0.00 0.00 61 1022.7
20190122150610 47 82 1.0 3.0 0.00 0.00 0.00 62 1022.7
20190122150106 47 82 0.0 2.0 0.00 0.00 0.00 61 1022.5
20190122145606 47 82 0.0 2.0 0.00 0.00 0.00 60 1022.5
20190122145103 48 83 0.0 0.0 0.00 0.00 0.00 59 1022.5
20190122144600 48 83 0.0 0.0 0.00 0.00 0.00 58 1022.1
20190122144101 48 83 0.0 0.0 0.00 0.00 0.00 58 1022.1
20190122143600 49 83 0.0 0.0 0.00 0.00 0.00 58 1022.1
20190122143118 49 83 0.0 3.0 0.00 0.00 0.00 57 1021.8